ZSSGP FAPM-FAOR

Flight info

Callsign ZSSGP
Flight time N/A
Altitude 16000
Route PMV DCT LYV DCT WRV DCT GEROX DCT AVILO
Aircraft C208/L-SDFGR/C

Departure

Time 2026-05-05 16:38
Airport Pietermaritzburg Airport (FAPM)

Arrival

Time N/A
Airport O.R. Tambo International Airport (FAOR)
Time Latitude Longitude Altitude Speed Heading
2026-05-05 16:27 -29.64325 30.39567 2398 ft 0 kts 91°
2026-05-05 16:32 -29.64330 30.39578 2404 ft 5 kts 120°
2026-05-05 16:32 -29.64379 30.39607 2401 ft 12 kts 181°
2026-05-05 16:32 -29.64464 30.39589 2402 ft 0 kts 194°
2026-05-05 16:33 -29.64464 30.39590 2402 ft 0 kts 194°
2026-05-05 16:34 -29.64493 30.39581 2404 ft 11 kts 194°
2026-05-05 16:34 -29.64487 30.39511 2403 ft 17 kts 322°
2026-05-05 16:35 -29.64364 30.39401 2403 ft 22 kts 321°
2026-05-05 16:35 -29.64323 30.39365 2405 ft 11 kts 149°
2026-05-05 16:35 -29.64360 30.39397 2405 ft 0 kts 143°
2026-05-05 16:36 -29.64373 30.39408 2404 ft 15 kts 142°
2026-05-05 16:36 -29.64578 30.39591 2401 ft 58 kts 142°
2026-05-05 16:37 -29.64995 30.39962 2407 ft 91 kts 141°
2026-05-05 16:37 -29.65535 30.40397 2556 ft 98 kts 137°
2026-05-05 16:37 -29.66061 30.40897 2775 ft 97 kts 124°
2026-05-05 16:37 -29.66430 30.41520 2978 ft 90 kts 102°
2026-05-05 16:38 -29.66415 30.42222 3161 ft 90 kts 63°
2026-05-05 16:38 -29.65985 30.42713 3387 ft 91 kts 23°
2026-05-05 16:38 -29.65314 30.42813 3504 ft 104 kts 360°
2026-05-05 16:38 -29.64618 30.42589 3788 ft 106 kts 333°
2026-05-05 16:39 -29.64020 30.42114 4094 ft 102 kts 330°
2026-05-05 16:39 -29.63453 30.41648 4332 ft 102 kts 330°
2026-05-05 16:39 -29.62852 30.41159 4528 ft 109 kts 330°
2026-05-05 16:39 -29.62381 30.40445 4726 ft 123 kts 288°
2026-05-05 16:40 -29.62229 30.39472 4927 ft 126 kts 287°
2026-05-05 16:40 -29.61951 30.38518 5111 ft 125 kts 303°
2026-05-05 16:40 -29.61388 30.37790 5293 ft 121 kts 329°
2026-05-05 16:40 -29.60679 30.37253 5480 ft 123 kts 329°
2026-05-05 16:41 -29.59949 30.36724 5663 ft 124 kts 330°
2026-05-05 16:41 -29.59214 30.36210 5844 ft 126 kts 330°
2026-05-05 16:41 -29.58458 30.35690 6027 ft 126 kts 330°
2026-05-05 16:41 -29.57696 30.35169 6211 ft 128 kts 330°
2026-05-05 16:42 -29.56932 30.34645 6379 ft 128 kts 330°
2026-05-05 16:42 -29.56168 30.34122 6541 ft 127 kts 329°
2026-05-05 16:42 -29.55408 30.33604 6701 ft 126 kts 329°
2026-05-05 16:42 -29.54674 30.33103 6863 ft 124 kts 329°
2026-05-05 16:43 -29.53933 30.32595 7032 ft 125 kts 329°
2026-05-05 16:43 -29.53184 30.32084 7197 ft 126 kts 329°
2026-05-05 16:43 -29.52430 30.31569 7367 ft 126 kts 329°
2026-05-05 16:43 -29.51671 30.31052 7539 ft 128 kts 329°
2026-05-05 16:44 -29.50900 30.30525 7704 ft 129 kts 329°
2026-05-05 16:44 -29.50128 30.29999 7880 ft 129 kts 329°
2026-05-05 16:44 -29.49354 30.29472 8049 ft 130 kts 328°
2026-05-05 16:44 -29.48575 30.28940 8221 ft 130 kts 328°
2026-05-05 16:45 -29.47794 30.28406 8403 ft 131 kts 328°
2026-05-05 16:45 -29.47004 30.27868 8577 ft 132 kts 328°
2026-05-05 16:45 -29.46210 30.27330 8749 ft 133 kts 328°
2026-05-05 16:45 -29.45430 30.26795 8923 ft 132 kts 328°
2026-05-05 16:46 -29.44643 30.26259 9098 ft 131 kts 328°
2026-05-05 16:46 -29.43857 30.25724 9273 ft 131 kts 328°
2026-05-05 16:46 -29.43084 30.25198 9463 ft 127 kts 324°
2026-05-05 16:46 -29.42337 30.24690 9650 ft 123 kts 324°
2026-05-05 16:47 -29.41607 30.24194 9827 ft 121 kts 324°
2026-05-05 16:47 -29.40892 30.23707 9984 ft 118 kts 323°
2026-05-05 16:47 -29.40188 30.23226 10142 ft 117 kts 323°
2026-05-05 16:47 -29.39493 30.22753 10299 ft 117 kts 323°
2026-05-05 16:48 -29.38793 30.22276 10452 ft 117 kts 323°
2026-05-05 16:48 -29.38102 30.21807 10614 ft 115 kts 323°
2026-05-05 16:48 -29.37419 30.21342 10773 ft 114 kts 323°
2026-05-05 16:48 -29.36741 30.20880 10934 ft 113 kts 323°
2026-05-05 16:49 -29.36071 30.20424 11093 ft 111 kts 322°
2026-05-05 16:49 -29.35413 30.19978 11262 ft 109 kts 322°
2026-05-05 16:49 -29.34761 30.19534 11424 ft 108 kts 322°
2026-05-05 16:49 -29.34116 30.19094 11585 ft 107 kts 322°
2026-05-05 16:50 -29.33482 30.18664 11755 ft 108 kts 322°
2026-05-05 16:50 -29.32837 30.18227 11932 ft 107 kts 322°
2026-05-05 16:50 -29.32198 30.17793 12095 ft 106 kts 322°
2026-05-05 16:50 -29.31559 30.17357 12243 ft 109 kts 322°
2026-05-05 16:51 -29.30895 30.16905 12380 ft 113 kts 322°
2026-05-05 16:51 -29.30211 30.16442 12513 ft 115 kts 322°
2026-05-05 16:51 -29.29513 30.15967 12647 ft 118 kts 322°
2026-05-05 16:51 -29.28801 30.15484 12780 ft 120 kts 322°
2026-05-05 16:52 -29.28071 30.14989 12922 ft 123 kts 322°
2026-05-05 16:52 -29.27328 30.14485 13054 ft 124 kts 322°
2026-05-05 16:52 -29.26584 30.13980 13182 ft 125 kts 322°
2026-05-05 16:52 -29.25831 30.13470 13315 ft 126 kts 322°
2026-05-05 16:53 -29.25078 30.12962 13440 ft 125 kts 322°
2026-05-05 16:53 -29.24340 30.12459 13564 ft 122 kts 322°
2026-05-05 16:53 -29.23604 30.11961 13697 ft 124 kts 321°
2026-05-05 16:53 -29.22872 30.11463 13812 ft 124 kts 321°
2026-05-05 16:54 -29.22130 30.10952 13925 ft 124 kts 323°
2026-05-05 16:54 -29.21390 30.10458 14054 ft 122 kts 322°
2026-05-05 16:54 -29.20651 30.09959 14174 ft 123 kts 322°
2026-05-05 16:54 -29.19911 30.09458 14289 ft 123 kts 322°
2026-05-05 16:55 -29.19181 30.08963 14405 ft 122 kts 322°
2026-05-05 16:55 -29.18454 30.08471 14519 ft 121 kts 322°
2026-05-05 16:55 -29.17742 30.07975 14635 ft 119 kts 321°
2026-05-05 16:55 -29.17059 30.07466 14756 ft 118 kts 320°
2026-05-05 16:56 -29.16384 30.06929 14869 ft 117 kts 319°
2026-05-05 16:56 -29.15669 30.06476 14985 ft 118 kts 326°
2026-05-05 16:56 -29.14919 30.06031 15013 ft 124 kts 324°
2026-05-05 16:56 -29.14154 30.05543 15081 ft 125 kts 323°
2026-05-05 16:57 -29.13402 30.05045 15197 ft 124 kts 323°
2026-05-05 16:57 -29.12661 30.04548 15320 ft 123 kts 323°
2026-05-05 16:57 -29.11926 30.04052 15433 ft 121 kts 322°
2026-05-05 16:57 -29.11205 30.03564 15548 ft 120 kts 322°
2026-05-05 16:58 -29.10487 30.03080 15669 ft 120 kts 322°
2026-05-05 16:58 -29.09771 30.02595 15787 ft 119 kts 323°
2026-05-05 16:58 -29.09299 30.02276 15867 ft 120 kts 322°
2026-05-05 16:58 -29.08359 30.01639 16005 ft 121 kts 322°
2026-05-05 16:59 -29.07618 30.01138 16010 ft 128 kts 323°
2026-05-05 16:59 -29.06838 30.00612 16023 ft 132 kts 323°
2026-05-05 16:59 -29.06032 30.00068 16014 ft 136 kts 323°
2026-05-05 16:59 -29.05210 29.99514 16019 ft 138 kts 323°
2026-05-05 17:00 -29.04658 29.99142 16018 ft 139 kts 323°
2026-05-05 17:00 -29.03819 29.98569 16018 ft 140 kts 323°
2026-05-05 17:00 -29.02974 29.98000 16019 ft 142 kts 323°
2026-05-05 17:00 -29.01843 29.97244 16016 ft 142 kts 324°
2026-05-05 17:01 -29.00992 29.96671 16008 ft 142 kts 323°
2026-05-05 17:01 -29.00418 29.96283 15995 ft 142 kts 323°
2026-05-05 17:01 -28.99579 29.95716 15999 ft 141 kts 323°
2026-05-05 17:01 -28.98732 29.95145 15993 ft 141 kts 323°
2026-05-05 17:02 -28.97890 29.94578 15997 ft 140 kts 323°
2026-05-05 17:02 -28.97054 29.94014 16004 ft 138 kts 323°
2026-05-05 17:02 -28.96225 29.93455 16014 ft 139 kts 323°
2026-05-05 17:02 -28.95393 29.92894 16005 ft 139 kts 323°
2026-05-05 17:03 -28.94559 29.92332 16013 ft 139 kts 323°
2026-05-05 17:03 -28.93727 29.91773 16006 ft 137 kts 323°
2026-05-05 17:03 -28.92918 29.91227 16007 ft 136 kts 323°
2026-05-05 17:03 -28.92100 29.90676 16004 ft 137 kts 323°
2026-05-05 17:04 -28.91281 29.90125 16002 ft 136 kts 323°
2026-05-05 17:04 -28.90465 29.89580 16005 ft 136 kts 323°
2026-05-05 17:04 -28.89647 29.89025 16014 ft 138 kts 323°
2026-05-05 17:04 -28.88817 29.88465 16009 ft 139 kts 323°
2026-05-05 17:05 -28.87983 29.87903 16013 ft 140 kts 324°
2026-05-05 17:05 -28.87136 29.87334 16018 ft 142 kts 324°
2026-05-05 17:05 -28.86278 29.86758 16016 ft 144 kts 324°
2026-05-05 17:05 -28.85413 29.86177 16015 ft 145 kts 324°
2026-05-05 17:06 -28.84543 29.85593 16025 ft 145 kts 324°
2026-05-05 17:06 -28.83669 29.85005 16019 ft 146 kts 324°
2026-05-05 17:06 -28.82797 29.84419 16023 ft 145 kts 324°
2026-05-05 17:06 -28.81936 29.83841 16017 ft 146 kts 324°
2026-05-05 17:07 -28.81065 29.83255 16013 ft 145 kts 324°
2026-05-05 17:07 -28.80197 29.82672 16044 ft 145 kts 324°
2026-05-05 17:07 -28.79326 29.82086 16023 ft 145 kts 325°
2026-05-05 17:07 -28.78453 29.81502 16017 ft 146 kts 324°
2026-05-05 17:08 -28.77581 29.80916 16018 ft 145 kts 324°
2026-05-05 17:08 -28.76709 29.80331 16023 ft 145 kts 324°
2026-05-05 17:08 -28.75837 29.79745 16015 ft 146 kts 324°
2026-05-05 17:08 -28.74964 29.79160 16021 ft 146 kts 324°
2026-05-05 17:09 -28.74092 29.78576 16014 ft 145 kts 324°
2026-05-05 17:09 -28.73220 29.77991 16016 ft 145 kts 324°
2026-05-05 17:09 -28.72354 29.77410 16007 ft 144 kts 324°
2026-05-05 17:09 -28.71496 29.76836 16007 ft 142 kts 324°
2026-05-05 17:10 -28.70646 29.76266 16009 ft 142 kts 324°
2026-05-05 17:10 -28.69801 29.75699 16014 ft 143 kts 324°
2026-05-05 17:10 -28.68944 29.75124 16008 ft 143 kts 325°
2026-05-05 17:10 -28.68083 29.74548 16016 ft 143 kts 325°
2026-05-05 17:11 -28.67218 29.73968 16016 ft 144 kts 325°
2026-05-05 17:11 -28.66351 29.73388 16011 ft 144 kts 325°
2026-05-05 17:11 -28.65485 29.72808 16018 ft 144 kts 325°
2026-05-05 17:11 -28.64618 29.72228 16017 ft 145 kts 325°
2026-05-05 17:12 -28.63748 29.71646 16023 ft 145 kts 325°
2026-05-05 17:12 -28.62876 29.71063 16025 ft 145 kts 325°
2026-05-05 17:12 -28.62009 29.70483 16033 ft 144 kts 325°
2026-05-05 17:12 -28.61143 29.69904 16030 ft 144 kts 325°
2026-05-05 17:13 -28.60283 29.69315 16030 ft 144 kts 322°
2026-05-05 17:13 -28.59455 29.68666 16031 ft 145 kts 322°
2026-05-05 17:13 -28.58612 29.68035 16036 ft 145 kts 322°
2026-05-05 17:13 -28.57766 29.67395 16027 ft 146 kts 322°
2026-05-05 17:14 -28.56925 29.66757 16027 ft 145 kts 322°
2026-05-05 17:14 -28.56089 29.66123 16032 ft 144 kts 322°
2026-05-05 17:14 -28.55257 29.65495 16031 ft 143 kts 322°
2026-05-05 17:14 -28.54442 29.64876 16031 ft 143 kts 322°
2026-05-05 17:15 -28.53607 29.64240 16033 ft 142 kts 322°
2026-05-05 17:15 -28.52797 29.63626 16031 ft 142 kts 322°
2026-05-05 17:15 -28.51978 29.63004 16031 ft 141 kts 322°
2026-05-05 17:15 -28.51159 29.62383 16030 ft 141 kts 322°
2026-05-05 17:16 -28.50345 29.61765 16030 ft 141 kts 322°
2026-05-05 17:16 -28.49532 29.61148 16027 ft 141 kts 322°
2026-05-05 17:16 -28.48712 29.60527 16028 ft 142 kts 322°
2026-05-05 17:16 -28.47893 29.59905 16035 ft 142 kts 322°
2026-05-05 17:17 -28.47071 29.59281 16042 ft 142 kts 322°
2026-05-05 17:17 -28.46247 29.58657 16044 ft 142 kts 322°
2026-05-05 17:17 -28.45423 29.58033 16042 ft 142 kts 322°
2026-05-05 17:17 -28.44601 29.57410 16041 ft 142 kts 322°
2026-05-05 17:18 -28.43780 29.56788 16039 ft 142 kts 322°
2026-05-05 17:18 -28.42961 29.56166 16044 ft 141 kts 322°
2026-05-05 17:18 -28.42153 29.55553 16033 ft 141 kts 322°
2026-05-05 17:18 -28.41340 29.54936 16036 ft 140 kts 322°
2026-05-05 17:19 -28.40528 29.54321 16049 ft 140 kts 322°
2026-05-05 17:19 -28.39719 29.53708 16059 ft 140 kts 323°
2026-05-05 17:19 -28.38903 29.53090 16054 ft 141 kts 323°
2026-05-05 17:19 -28.38085 29.52473 16056 ft 141 kts 323°
2026-05-05 17:20 -28.37264 29.51851 16054 ft 142 kts 323°
2026-05-05 17:20 -28.36444 29.51232 16054 ft 141 kts 323°
2026-05-05 17:20 -28.35626 29.50614 16058 ft 141 kts 323°
2026-05-05 17:20 -28.34812 29.49999 16051 ft 140 kts 323°
2026-05-05 17:21 -28.34002 29.49386 16053 ft 139 kts 323°
2026-05-05 17:21 -28.33195 29.48779 16050 ft 139 kts 323°
2026-05-05 17:21 -28.32390 29.48169 16048 ft 139 kts 323°
2026-05-05 17:22 -28.30795 29.46963 16070 ft 138 kts 323°
2026-05-05 17:22 -28.29999 29.46360 16070 ft 138 kts 323°
2026-05-05 17:22 -28.29206 29.45762 16063 ft 138 kts 323°
2026-05-05 17:22 -28.28407 29.45159 16073 ft 138 kts 323°
2026-05-05 17:23 -28.27606 29.44553 16073 ft 138 kts 323°
2026-05-05 17:23 -28.26800 29.43945 16071 ft 139 kts 324°
2026-05-05 17:23 -28.25995 29.43337 16075 ft 139 kts 323°
2026-05-05 17:23 -28.25187 29.42729 16070 ft 139 kts 324°
2026-05-05 17:24 -28.24386 29.42125 16078 ft 138 kts 323°
2026-05-05 17:24 -28.23581 29.41518 16073 ft 139 kts 323°
2026-05-05 17:24 -28.22772 29.40908 16076 ft 139 kts 323°
2026-05-05 17:24 -28.21968 29.40302 16077 ft 138 kts 323°
2026-05-05 17:25 -28.21174 29.39703 16076 ft 136 kts 323°
2026-05-05 17:25 -28.20653 29.39311 16079 ft 135 kts 323°
2026-05-05 17:25 -28.19596 29.38514 16072 ft 137 kts 323°
2026-05-05 17:25 -28.18796 29.37909 16073 ft 139 kts 323°
2026-05-05 17:26 -28.17987 29.37300 16072 ft 139 kts 323°
2026-05-05 17:26 -28.17189 29.36700 16081 ft 139 kts 323°
2026-05-05 17:26 -28.16381 29.36091 16084 ft 140 kts 323°
2026-05-05 17:26 -28.15567 29.35479 16078 ft 140 kts 323°
2026-05-05 17:27 -28.14753 29.34866 16081 ft 140 kts 323°
2026-05-05 17:27 -28.13940 29.34254 16082 ft 140 kts 323°
2026-05-05 17:27 -28.13128 29.33643 16072 ft 140 kts 323°
2026-05-05 17:27 -28.12323 29.33038 16084 ft 139 kts 323°
2026-05-05 17:28 -28.11521 29.32434 16081 ft 138 kts 323°
2026-05-05 17:28 -28.10719 29.31832 16081 ft 138 kts 323°
2026-05-05 17:28 -28.09920 29.31230 16076 ft 138 kts 323°
2026-05-05 17:28 -28.09131 29.30637 16077 ft 138 kts 323°
2026-05-05 17:29 -28.08334 29.30038 16080 ft 137 kts 323°
2026-05-05 17:29 -28.07539 29.29441 16079 ft 137 kts 323°
2026-05-05 17:29 -28.06739 29.28841 16082 ft 137 kts 323°
2026-05-05 17:29 -28.05944 29.28243 16078 ft 137 kts 323°
2026-05-05 17:30 -28.05147 29.27645 16080 ft 137 kts 323°
2026-05-05 17:30 -28.04352 29.27047 16084 ft 137 kts 323°
2026-05-05 17:30 -28.03555 29.26449 16083 ft 137 kts 323°
2026-05-05 17:30 -28.02756 29.25849 16088 ft 138 kts 323°
2026-05-05 17:31 -28.01956 29.25248 16079 ft 137 kts 323°
2026-05-05 17:31 -28.01170 29.24656 16101 ft 139 kts 324°
2026-05-05 17:31 -28.00359 29.24049 16095 ft 140 kts 324°
2026-05-05 17:31 -27.99543 29.23438 16100 ft 141 kts 324°
2026-05-05 17:32 -27.98720 29.22821 16104 ft 143 kts 324°
2026-05-05 17:32 -27.97893 29.22200 16101 ft 142 kts 324°
2026-05-05 17:32 -27.97066 29.21582 16101 ft 143 kts 324°
2026-05-05 17:32 -27.96238 29.20961 16098 ft 143 kts 324°
2026-05-05 17:33 -27.95404 29.20338 16105 ft 144 kts 324°
2026-05-05 17:33 -27.94574 29.19715 16104 ft 143 kts 324°
2026-05-05 17:33 -27.93742 29.19093 16108 ft 144 kts 324°
2026-05-05 17:33 -27.92910 29.18468 16101 ft 144 kts 324°
2026-05-05 17:34 -27.92075 29.17843 16109 ft 144 kts 324°
2026-05-05 17:34 -27.91250 29.17225 16102 ft 144 kts 324°
2026-05-05 17:34 -27.90412 29.16598 16103 ft 144 kts 324°
2026-05-05 17:34 -27.89575 29.15973 16110 ft 144 kts 324°
2026-05-05 17:35 -27.88734 29.15345 16105 ft 145 kts 324°
2026-05-05 17:35 -27.87893 29.14714 16109 ft 145 kts 324°
2026-05-05 17:35 -27.87046 29.14081 16112 ft 146 kts 324°
2026-05-05 17:35 -27.86200 29.13446 16107 ft 146 kts 324°
2026-05-05 17:36 -27.85355 29.12815 16114 ft 146 kts 324°
2026-05-05 17:36 -27.84509 29.12182 16108 ft 146 kts 324°
2026-05-05 17:36 -27.83662 29.11549 16106 ft 145 kts 324°
2026-05-05 17:36 -27.82820 29.10922 16110 ft 145 kts 324°
2026-05-05 17:37 -27.81990 29.10301 16102 ft 144 kts 324°
2026-05-05 17:37 -27.81424 29.09878 16105 ft 144 kts 324°
2026-05-05 17:37 -27.80316 29.09051 16102 ft 145 kts 324°
2026-05-05 17:37 -27.79474 29.08423 16109 ft 145 kts 324°
2026-05-05 17:38 -27.78630 29.07793 16116 ft 146 kts 324°
2026-05-05 17:38 -27.77787 29.07164 16109 ft 145 kts 324°
2026-05-05 17:38 -27.76913 29.06593 16112 ft 146 kts 328°
2026-05-05 17:38 -27.76020 29.06047 16111 ft 145 kts 328°
2026-05-05 17:39 -27.75132 29.05499 16112 ft 146 kts 328°
2026-05-05 17:39 -27.74241 29.04951 16113 ft 146 kts 328°
2026-05-05 17:39 -27.73345 29.04402 16114 ft 146 kts 328°
2026-05-05 17:39 -27.72457 29.03858 16113 ft 145 kts 328°
2026-05-05 17:40 -27.71564 29.03311 16109 ft 146 kts 328°
2026-05-05 17:40 -27.70670 29.02764 16105 ft 146 kts 328°
2026-05-05 17:40 -27.69785 29.02222 16108 ft 147 kts 328°
2026-05-05 17:40 -27.68888 29.01673 16105 ft 147 kts 328°
2026-05-05 17:41 -27.67991 29.01124 16100 ft 145 kts 328°
2026-05-05 17:41 -27.67106 29.00583 16103 ft 144 kts 328°
2026-05-05 17:41 -27.66223 29.00044 16109 ft 144 kts 328°
2026-05-05 17:41 -27.65344 28.99506 16106 ft 144 kts 328°
2026-05-05 17:42 -27.64466 28.98969 16099 ft 143 kts 328°
2026-05-05 17:42 -27.63589 28.98432 16100 ft 143 kts 328°
2026-05-05 17:42 -27.62727 28.97906 16097 ft 142 kts 328°
2026-05-05 17:42 -27.61861 28.97375 16102 ft 142 kts 328°
2026-05-05 17:43 -27.60991 28.96843 16105 ft 142 kts 328°
2026-05-05 17:43 -27.60121 28.96313 16105 ft 142 kts 328°
2026-05-05 17:43 -27.59248 28.95780 16107 ft 143 kts 328°
2026-05-05 17:43 -27.58365 28.95237 16114 ft 146 kts 328°
2026-05-05 17:44 -27.57469 28.94693 16116 ft 148 kts 328°
2026-05-05 17:44 -27.56556 28.94136 16112 ft 149 kts 328°
2026-05-05 17:44 -27.55635 28.93575 16118 ft 151 kts 328°
2026-05-05 17:44 -27.54714 28.93013 16122 ft 151 kts 328°
2026-05-05 17:45 -27.53790 28.92448 16120 ft 152 kts 328°
2026-05-05 17:45 -27.52860 28.91880 16119 ft 152 kts 328°
2026-05-05 17:45 -27.51926 28.91312 16121 ft 152 kts 328°
2026-05-05 17:45 -27.50990 28.90741 16120 ft 152 kts 328°
2026-05-05 17:46 -27.50066 28.90177 16119 ft 153 kts 328°
2026-05-05 17:46 -27.49130 28.89606 16120 ft 153 kts 328°
2026-05-05 17:46 -27.48196 28.89037 16120 ft 152 kts 328°
2026-05-05 17:46 -27.47580 28.88662 16120 ft 152 kts 328°
2026-05-05 17:47 -27.46646 28.88094 16121 ft 152 kts 328°
2026-05-05 17:47 -27.45395 28.87332 16111 ft 153 kts 328°
2026-05-05 17:47 -27.44776 28.86957 16114 ft 152 kts 328°
2026-05-05 17:47 -27.43841 28.86387 16114 ft 152 kts 328°
2026-05-05 17:48 -27.42608 28.85637 16127 ft 152 kts 328°
2026-05-05 17:48 -27.41680 28.85072 16123 ft 151 kts 328°
2026-05-05 17:48 -27.40754 28.84508 16125 ft 151 kts 328°
2026-05-05 17:48 -27.40139 28.84134 16119 ft 151 kts 328°
2026-05-05 17:49 -27.39212 28.83570 16120 ft 152 kts 328°
2026-05-05 17:49 -27.38282 28.83005 16117 ft 152 kts 329°
2026-05-05 17:49 -27.37269 28.82630 16110 ft 155 kts 341°
2026-05-05 17:49 -27.36221 28.82362 16110 ft 154 kts 340°
2026-05-05 17:50 -27.35188 28.82082 16109 ft 154 kts 340°
2026-05-05 17:50 -27.34143 28.81798 16109 ft 155 kts 340°
2026-05-05 17:50 -27.33092 28.81513 16108 ft 155 kts 340°
2026-05-05 17:50 -27.32045 28.81233 16109 ft 155 kts 340°
2026-05-05 17:51 -27.30993 28.80946 16108 ft 155 kts 340°
2026-05-05 17:51 -27.29947 28.80660 16110 ft 155 kts 340°
2026-05-05 17:51 -27.28915 28.80381 16109 ft 154 kts 340°
2026-05-05 17:51 -27.27868 28.80098 16110 ft 155 kts 340°
2026-05-05 17:52 -27.26821 28.79816 16112 ft 154 kts 340°
2026-05-05 17:52 -27.25777 28.79534 16112 ft 154 kts 340°
2026-05-05 17:52 -27.24735 28.79251 16111 ft 154 kts 340°
2026-05-05 17:52 -27.23689 28.78967 16109 ft 155 kts 340°
2026-05-05 17:53 -27.22641 28.78685 16109 ft 155 kts 340°
2026-05-05 17:53 -27.21593 28.78401 16110 ft 155 kts 340°
2026-05-05 17:53 -27.20544 28.78118 16112 ft 154 kts 340°
2026-05-05 17:53 -27.19504 28.77837 16112 ft 153 kts 340°
2026-05-05 17:54 -27.18470 28.77557 16116 ft 153 kts 340°
2026-05-05 17:54 -27.17448 28.77281 16114 ft 152 kts 340°
2026-05-05 17:54 -27.16419 28.77003 16113 ft 152 kts 339°
2026-05-05 17:54 -27.15398 28.76728 16112 ft 150 kts 339°
2026-05-05 17:55 -27.14378 28.76453 16113 ft 150 kts 340°
2026-05-05 17:55 -27.13364 28.76179 16113 ft 149 kts 339°
2026-05-05 17:55 -27.12353 28.75906 16111 ft 150 kts 340°
2026-05-05 17:55 -27.11340 28.75632 16113 ft 150 kts 339°
2026-05-05 17:56 -27.10333 28.75360 16114 ft 150 kts 339°
2026-05-05 17:56 -27.09312 28.75085 16113 ft 151 kts 339°
2026-05-05 17:56 -27.08289 28.74808 16113 ft 151 kts 339°
2026-05-05 17:56 -27.07264 28.74532 16114 ft 152 kts 340°
2026-05-05 17:57 -27.06237 28.74256 16118 ft 152 kts 339°
2026-05-05 17:57 -27.05212 28.73980 16118 ft 151 kts 339°
2026-05-05 17:57 -27.04187 28.73703 16118 ft 152 kts 339°
2026-05-05 17:57 -27.03159 28.73426 16119 ft 152 kts 339°
2026-05-05 17:58 -27.02126 28.73148 16119 ft 153 kts 340°
2026-05-05 17:58 -27.01106 28.72873 16119 ft 153 kts 339°
2026-05-05 17:58 -27.00073 28.72595 16120 ft 153 kts 340°
2026-05-05 17:58 -26.99041 28.72317 16119 ft 153 kts 340°
2026-05-05 17:59 -26.98020 28.71999 16120 ft 150 kts 331°
2026-05-05 17:59 -26.97100 28.71435 16038 ft 154 kts 328°
2026-05-05 17:59 -26.96135 28.70855 15859 ft 160 kts 327°
2026-05-05 17:59 -26.95154 28.70272 15701 ft 159 kts 327°
2026-05-05 18:00 -26.94182 28.69689 15533 ft 157 kts 327°
2026-05-05 18:00 -26.93221 28.69113 15369 ft 157 kts 328°
2026-05-05 18:00 -26.92269 28.68546 15204 ft 156 kts 327°
2026-05-05 18:00 -26.91310 28.67970 15039 ft 156 kts 327°
2026-05-05 18:01 -26.90356 28.67399 14877 ft 155 kts 327°
2026-05-05 18:01 -26.89405 28.66831 14719 ft 155 kts 327°
2026-05-05 18:01 -26.88448 28.66256 14555 ft 158 kts 327°
2026-05-05 18:01 -26.87464 28.65666 14389 ft 163 kts 327°
2026-05-05 18:02 -26.86466 28.65073 14229 ft 165 kts 327°
2026-05-05 18:02 -26.85446 28.64463 14069 ft 167 kts 327°
2026-05-05 18:02 -26.84421 28.63850 13915 ft 167 kts 327°
2026-05-05 18:02 -26.83391 28.63236 13751 ft 168 kts 327°
2026-05-05 18:03 -26.82357 28.62617 13568 ft 169 kts 327°
2026-05-05 18:03 -26.81320 28.61998 13395 ft 169 kts 327°
2026-05-05 18:03 -26.80278 28.61377 13213 ft 169 kts 327°
2026-05-05 18:03 -26.79236 28.60756 13036 ft 169 kts 327°
2026-05-05 18:04 -26.78194 28.60133 12862 ft 169 kts 327°
2026-05-05 18:04 -26.77154 28.59513 12686 ft 169 kts 327°
2026-05-05 18:04 -26.76127 28.58902 12513 ft 169 kts 327°
2026-05-05 18:04 -26.75087 28.58281 12341 ft 170 kts 326°
2026-05-05 18:05 -26.74046 28.57660 12162 ft 169 kts 327°
2026-05-05 18:05 -26.72999 28.57035 11963 ft 170 kts 327°
2026-05-05 18:05 -26.71964 28.56419 11768 ft 165 kts 326°
2026-05-05 18:05 -26.71009 28.55860 11557 ft 144 kts 325°
2026-05-05 18:06 -26.70157 28.55352 11341 ft 134 kts 324°
2026-05-05 18:06 -26.69621 28.55031 11201 ft 130 kts 324°
2026-05-05 18:06 -26.68574 28.54405 10927 ft 126 kts 324°
2026-05-05 18:06 -26.67810 28.53937 10729 ft 125 kts 323°
2026-05-05 18:07 -26.67060 28.53481 10544 ft 124 kts 323°
2026-05-05 18:07 -26.66295 28.53021 10349 ft 125 kts 324°
2026-05-05 18:07 -26.65527 28.52569 10156 ft 124 kts 323°
2026-05-05 18:07 -26.64761 28.52111 9971 ft 126 kts 323°
2026-05-05 18:08 -26.63986 28.51654 9774 ft 126 kts 324°
2026-05-05 18:08 -26.63217 28.51187 9570 ft 126 kts 323°
2026-05-05 18:08 -26.62459 28.50695 9374 ft 126 kts 322°
2026-05-05 18:08 -26.61711 28.50176 9174 ft 127 kts 320°
2026-05-05 18:09 -26.60985 28.49606 8979 ft 126 kts 310°
2026-05-05 18:09 -26.60629 28.48738 8790 ft 127 kts 287°
2026-05-05 18:09 -26.60381 28.47745 8611 ft 137 kts 288°
2026-05-05 18:09 -26.60110 28.46704 8427 ft 142 kts 287°
2026-05-05 18:10 -26.59837 28.45632 8245 ft 144 kts 288°
2026-05-05 18:10 -26.59564 28.44559 8154 ft 140 kts 288°
2026-05-05 18:10 -26.59311 28.43531 8152 ft 135 kts 288°
2026-05-05 18:10 -26.59065 28.42522 8142 ft 135 kts 288°
2026-05-05 18:11 -26.58810 28.41489 8020 ft 139 kts 288°
2026-05-05 18:11 -26.58552 28.40457 8006 ft 136 kts 288°
2026-05-05 18:11 -26.58299 28.39440 8003 ft 136 kts 288°
2026-05-05 18:11 -26.58044 28.38415 8007 ft 137 kts 288°
2026-05-05 18:12 -26.57786 28.37386 8005 ft 137 kts 288°
2026-05-05 18:12 -26.57524 28.36377 8010 ft 137 kts 287°
2026-05-05 18:12 -26.57218 28.35344 8008 ft 144 kts 288°
2026-05-05 18:12 -26.56896 28.34268 8013 ft 147 kts 288°
2026-05-05 18:13 -26.56568 28.33177 8012 ft 149 kts 288°
2026-05-05 18:13 -26.56237 28.32075 8013 ft 150 kts 288°
2026-05-05 18:13 -26.55902 28.30969 8011 ft 151 kts 288°
2026-05-05 18:13 -26.55562 28.29863 8012 ft 150 kts 288°
2026-05-05 18:14 -26.55232 28.28756 8012 ft 150 kts 288°
2026-05-05 18:14 -26.54908 28.27649 8012 ft 150 kts 288°
2026-05-05 18:14 -26.54581 28.26546 8011 ft 150 kts 289°
2026-05-05 18:14 -26.54199 28.25458 8002 ft 150 kts 291°
2026-05-05 18:15 -26.53805 28.24384 8007 ft 150 kts 291°
2026-05-05 18:15 -26.53411 28.23317 8009 ft 147 kts 291°
2026-05-05 18:15 -26.53026 28.22260 7983 ft 145 kts 292°
2026-05-05 18:15 -26.52599 28.21264 7992 ft 141 kts 295°
2026-05-05 18:16 -26.52166 28.20268 7994 ft 144 kts 294°
2026-05-05 18:16 -26.51695 28.19270 7987 ft 147 kts 304°
2026-05-05 18:16 -26.50905 28.18529 7996 ft 151 kts 318°
2026-05-05 18:16 -26.50070 28.17853 8006 ft 147 kts 319°
2026-05-05 18:17 -26.49251 28.17198 7984 ft 141 kts 319°
2026-05-05 18:17 -26.48476 28.16541 7997 ft 143 kts 317°
2026-05-05 18:17 -26.47605 28.15990 7994 ft 149 kts 335°
2026-05-05 18:17 -26.46566 28.15753 7993 ft 155 kts 343°
2026-05-05 18:18 -26.45463 28.15734 7993 ft 162 kts 355°
2026-05-05 18:18 -26.44334 28.15964 7998 ft 168 kts
2026-05-05 18:18 -26.43224 28.16440 7992 ft 174 kts 17°
2026-05-05 18:18 -26.42199 28.17139 7995 ft 177 kts 27°
2026-05-05 18:19 -26.41195 28.17879 7995 ft 165 kts
2026-05-05 18:19 -26.40127 28.17856 7999 ft 150 kts 341°
2026-05-05 18:19 -26.39060 28.17825 7994 ft 159 kts 358°
2026-05-05 18:19 -26.37966 28.18110 7996 ft 162 kts
2026-05-05 18:20 -26.36872 28.18399 7998 ft 162 kts
2026-05-05 18:20 -26.35779 28.18648 8002 ft 162 kts
2026-05-05 18:20 -26.34667 28.18868 8009 ft 162 kts 359°
2026-05-05 18:20 -26.33556 28.19053 8011 ft 162 kts 358°
2026-05-05 18:21 -26.32438 28.19206 8011 ft 161 kts 357°
2026-05-05 18:21 -26.31331 28.19326 8009 ft 159 kts 355°
2026-05-05 18:21 -26.30226 28.19410 8006 ft 158 kts 353°